{"data":{"norad_id":58832,"intl_designator":"2024-017G","name":"STARLINK-31263","alt_names":[],"object_type":"PAYLOAD","status":"ACTIVE","operator":null,"country":"US","launch_date":"2024-01-24","launch_site_code":"AFWTR","launch_vehicle":null,"mission":null,"orbit_class":"UNKNOWN","rcs_meters":null,"size_class":null,"mass_kg":null,"dimensions":null,"purposes":["comms"],"wikipedia_slug":null,"has_3d_model":false,"image_url":null,"decayed_at":null,"tle_current":{"epoch":"2026-09-20T12:37:37.985376Z","epoch_age_seconds":150309,"freshness":"FRESH","line1":"1 58832U 24017G   26263.52613409  .00001377  00000+0  51897-4 0  9990","line2":"2 58832  53.1628   5.3361 0001593  76.0973 284.0207 15.34395047150191","mean_motion":15.34395047,"eccentricity":0.0001593,"inclination_deg":53.1628,"raan_deg":5.3361,"arg_perigee_deg":76.0973,"mean_anomaly_deg":284.0207,"bstar":5.1897e-5,"rev_number":15019,"period_min":93.848061020233,"perigee_km":461.62821341112,"apogee_km":463.80770980189,"semimajor_km":6840.8549616065,"source":"CELESTRAK","updated_at":"2026-09-21T09:00:33.983923Z"}}}